Flag for Jordan Weather past 2 weeks in Madaba, Jordan

Now
30 °F

Fog.


Feels Like: 30 °F
Forecast: 42 / 56 °F
Wind: No wind

Location: Queen Alia Airport

Current Time: Mar 1, 2015 at 7:36:31 AM

Latest Report: Mar 1, 2015 at 7:00 AM


Visibility: 0 mi

Pressure: 30.12 "Hg

Humidity: 93%

Dew point: 28 °F

Location of MadabaLocation

Historic Weather in Madaba — Graph

°F

Madaba temperature yesterday

Maximum temperature yesterday: 61 °F (at 2:00 PM)
Minimum temperature yesterday: 43 °F (at 10:00 PM)
Average temperature yesterday: 53 °F

Past Weeks' High & Low Weather Summary

 TemperatureHumidityPressure
High73 °F (Feb 27, 4:00 PM)100% (Feb 14, 6:00 AM)30.24 "Hg (Feb 14, 6:00 AM)
Low28 °F (Feb 22, 6:00 AM)22% (Feb 27, 4:00 PM)29.68 "Hg (Feb 20, 4:00 AM)
Average46 °F76%30.01 "Hg
* Reported Feb 14 6:00 AM — Mar 1 6:00 AM, Madaba, Weather by CustomWeather, © 2015

Note: Actual official high and low records may vary slightly from our data, if they occured in-between our weather recording intervals... More about our weather records

Advertising

Madaba weather history for previous 24 hours

 ConditionsComfort  
Time TempWeatherWind HumidityBarometerVisibility
6:00 AM
Sun, Mar 1
30 °FFog.No wind93%30.12 "Hg0 mi
5:00 AM30 °FFog.5 mph100%30.12 "Hg1 mi
4:00 AM37 °FClear.5 mph93%30.09 "Hg10 mi
3:00 AM37 °FClear.5 mph93%30.12 "Hg10 mi
2:00 AM39 °FClear.5 mph93%30.12 "Hg10 mi
12:00 AM39 °FClear.No wind93%30.15 "Hg10 mi
11:00 PM
Sat, Feb 28
45 °FClear.6 mph87%30.15 "Hg10 mi
10:00 PM43 °FClear.No wind87%30.15 "Hg5 mi
9:00 PM45 °FClear.6 mph87%30.15 "Hg5 mi
8:00 PM45 °FClear.6 mph87%30.12 "Hg5 mi
7:00 PM50 °FClear.6 mph82%30.12 "Hg5 mi
6:00 PM54 °FClear.6 mph77%30.09 "Hg5 mi
5:00 PM59 °FScattered clouds.17 mph59%30.09 "Hg4 mi
4:00 PM59 °FScattered clouds.17 mph59%30.09 "Hg4 mi
3:00 PM59 °FBroken clouds.17 mph59%30.07 "HgN/A
2:00 PM61 °FBroken clouds.21 mph59%30.07 "HgN/A
1:00 PM59 °FBroken clouds.23 mph63%30.07 "HgN/A
12:00 PM59 °FBroken clouds.17 mph63%30.09 "HgN/A
11:00 AM59 °FScattered clouds.17 mph63%30.09 "HgN/A
10:00 AM59 °FSunny.17 mph63%30.09 "Hg10 mi
9:00 AM57 °FClear.16 mph67%30.07 "Hg5 mi
8:00 AM54 °FClear.16 mph72%30.07 "Hg5 mi
Weather by CustomWeather, © 2015

See weather overviewHow to use our weather pages